Location: Poughquag
(41.6090°N, 73.6820°W)
Time: 22:27:43
(UTC-05:00)

Envisat - Pass Details

Date: 09 October 2024
Orbit: 761 x 763 km, 98.3° (Epoch: 10 November)

Event Time Altitude Azimuth Distance (km) Brightness Sun altitude
Rises 04:59:45 0° 2° (N) 3,235 6.4 -23.3°
Reaches altitude 10° 05:02:19 10° 352° (N) 2,305 5.5 -22.8°
Enters shadow 05:05:02 24° 324° (NW) 1,539 4.3 -22.3°
